Volver al catálogo

DELTA 1 DEB

ActivoLEO
NORAD 10221·DEBRIS·🇺🇸 United States

Lanzado Jul 14, 1977 desde Cape Canaveral Space Force Station

Loading…

Próximos Pases (próximas 24 horas)

TLE

ActualizadoSource: Space-Track

Época: Sep 14, 2026, 14:54 UTC

1 10221U 77065AY  26257.62138114  .00005430  00000-0  43957-3 0  9992
2 10221  29.0260  84.9657 0283283 240.5679 116.6359 14.71222091485833

Sigue DELTA 1 DEB en tiempo real con AllMySat

Download on the App Store